TimeAST,TemperatureF,Dew PointF,Humidity,Sea Level PressureIn,VisibilityMPH,Wind Direction,Wind SpeedMPH,Gust SpeedMPH,PrecipitationIn,Events,Conditions,WindDirDegrees,DateUTC
12:56 AM,80.1,75.0,85,30.02,10.0,Calm,Calm,-,0.14,,Mostly Cloudy,0,2012-10-03 04:56:00
1:56 AM,80.1,75.9,87,30.01,10.0,East,9.2,-,N/A,,Scattered Clouds,100,2012-10-03 05:56:00
2:56 AM,80.1,75.0,85,30.00,10.0,ESE,8.1,-,0.00,,Scattered Clouds,120,2012-10-03 06:56:00
3:56 AM,79.0,75.0,88,29.99,10.0,East,3.5,-,N/A,,Scattered Clouds,100,2012-10-03 07:56:00
4:56 AM,80.1,73.9,81,30.00,10.0,East,8.1,-,N/A,,Scattered Clouds,90,2012-10-03 08:56:00
5:56 AM,81.0,73.9,79,30.01,10.0,ESE,4.6,-,N/A,,Mostly Cloudy,110,2012-10-03 09:56:00
6:56 AM,82.0,75.0,79,30.02,10.0,ESE,5.8,-,N/A,,Mostly Cloudy,120,2012-10-03 10:56:00
7:56 AM,84.0,73.0,69,30.04,10.0,East,12.7,-,N/A,,Scattered Clouds,80,2012-10-03 11:56:00
8:56 AM,86.0,73.0,65,30.06,10.0,ENE,16.1,-,N/A,,Scattered Clouds,70,2012-10-03 12:56:00
9:56 AM,87.1,73.9,65,30.08,10.0,ENE,13.8,21.9,N/A,,Scattered Clouds,70,2012-10-03 13:56:00
10:56 AM,89.1,73.0,59,30.06,10.0,ENE,16.1,20.7,N/A,,Scattered Clouds,60,2012-10-03 14:56:00
11:56 AM,89.1,75.0,63,30.05,10.0,ENE,16.1,23.0,N/A,,Scattered Clouds,60,2012-10-03 15:56:00
12:56 PM,89.1,72.0,57,30.03,10.0,NE,16.1,25.3,N/A,,Scattered Clouds,50,2012-10-03 16:56:00
1:56 PM,89.1,72.0,57,30.00,10.0,ENE,15.0,-,N/A,,Scattered Clouds,70,2012-10-03 17:56:00
2:56 PM,88.0,71.1,57,29.99,10.0,ENE,16.1,23.0,N/A,,Scattered Clouds,60,2012-10-03 18:56:00
3:56 PM,87.1,72.0,61,29.99,10.0,ENE,18.4,-,N/A,,Scattered Clouds,70,2012-10-03 19:56:00
4:56 PM,84.9,75.0,72,29.99,10.0,East,16.1,25.3,0.00,,Scattered Clouds,90,2012-10-03 20:56:00
5:56 PM,84.0,72.0,67,29.99,10.0,ENE,13.8,-,0.00,,Scattered Clouds,60,2012-10-03 21:56:00
6:56 PM,82.0,73.0,74,29.99,10.0,East,10.4,-,N/A,,Scattered Clouds,90,2012-10-03 22:56:00
7:56 PM,82.9,73.9,74,30.01,10.0,East,9.2,-,N/A,,Partly Cloudy,90,2012-10-03 23:56:00
8:56 PM,82.9,73.0,72,30.03,10.0,East,10.4,-,N/A,,Scattered Clouds,100,2012-10-04 00:56:00
9:56 PM,80.1,72.0,76,30.04,10.0,SE,5.8,-,0.01,,Scattered Clouds,140,2012-10-04 01:56:00
10:56 PM,80.1,73.0,79,30.03,10.0,Calm,Calm,-,N/A,,Scattered Clouds,0,2012-10-04 02:56:00
11:56 PM,80.1,72.0,76,30.02,10.0,Calm,Calm,-,N/A,,Scattered Clouds,0,2012-10-04 03:56:00